Regional Weather Roundup
Issued by NWS Grand Forks, ND

Home | Current Version | Previous Version | Text Only | Print | Product List | Glossary Off
Versions: 1 2 3 4 5 6 7 8 9 10 11 12 13 14 15 16 17 18 19 20 21 22 23 24 25 26 27 28 29 30 31 32 33 34 35 36 37 38 39 40 41 42 43 44 45 46 47 48 49 50

000
ASUS43 KFGF 190031
RWRFGF
PRAIRIE TO PINES  WEATHER ROUNDUP
NATIONAL WEATHER SERVICE EASTERN NORTH DAKOTA/GRAND FORKS ND
700 PM CDT SAT APR 18 2015

 **SATELLITE DATA USED TO AUGMENT SKY COVER AT AUTOMATED STATIONS**
 *****  WEATHER ACROSS EASTERN NORTH DAKOTA  *****

CITY           SKY/WX    TMP DP  RH WIND       PRES   REMARKS
GRAND FORKS    CLOUDY    67  29  24 S3        29.89F
6HR MIN TEMP:  63; 6HR MAX TEMP:  69;

GRAND FRKS AFB MOSUNNY   67  28  23 S5        29.89F
GRAND FRKS NWS   N/A     64 N/A N/A S1          N/A
DEVILS LAKE    PTSUNNY   63  30  29 S8        29.88S
6HR MIN TEMP:  61; 6HR MAX TEMP:  68;

FARGO          CLOUDY    71  28  20 SE13      29.87F
WAHPETON ARPT  CLOUDY    70  21  16 SE9       29.86F
$$

 ***** WEATHER ACROSS CENTRAL AND WESTERN NORTH DAKOTA  *****

CITY           SKY/WX    TMP DP  RH WIND       PRES   REMARKS
BISMARCK       CLOUDY    54  40  59 S8        29.92S
6HR MIN TEMP:  54; 6HR MAX TEMP:  63;

MINOT          LGT RAIN  58  38  47 NW24G31   29.87R
6HR MIN TEMP:  57; 6HR MAX TEMP:  74; 6HR PCP: TRACE;

JAMESTOWN      CLOUDY    65  28  24 S14G21    29.88F
6HR MIN TEMP:  61; 6HR MAX TEMP:  71;

MINOT AFB      CLOUDY    58  40  52 NW20      29.87R
GARRISON         N/A     56  45  66 W8        29.90R
WILLISTON      CLOUDY    56  28  34 NW23G32   29.96R
6HR MIN TEMP:  56; 6HR MAX TEMP:  73; 6HR PCP:  0.02;

DICKINSON      RAIN      51  47  86 N6        29.93R FOG
6HR MIN TEMP:  51; 6HR MAX TEMP:  69; 6HR PCP:  0.12;

HETTINGER      CLOUDY    50  43  77 E5        29.91F
6HR MIN TEMP:  49; 6HR MAX TEMP:  60; 6HR PCP: TRACE;

$$

 *****  OTHER AIRPORT OBSERVATIONS IN OUR AREA  *****

CITY           SKY/WX    TMP DP  RH WIND       PRES   REMARKS
WALHALLA       FAIR      66  28  24 S20       29.87F
GRAFTON AIRPOR FAIR      64  28  25 S10       29.89F
VALLEY CITY AR FAIR      66  28  24 SE6       29.87F
CANDO          FAIR      63  30  29 S17       29.86F
CAVALIER APRT  FAIR      64  28  25 SE7       29.88F
GWINNER        CLEAR     68  32  26 CALM      29.86F
ROLLA          FAIR      64  25  22 S20G26    29.84S
 ***** THE ABOVE OBSERVATIONS ARE NON NWS ARE NOT QUALITY
       CONTROLLED AND MAY MIS-REPORT RAIN FOR SNOW...
$$

  *****  WEATHER ACROSS NORTHERN MINNESOTA  *****

CITY           SKY/WX    TMP DP  RH WIND       PRES   REMARKS
FLAG ISLAND    MOSUNNY   55  21  26 E10       29.94F
WARROAD        MOSUNNY   46  34  61 CALM      29.95F
ROSEAU         PTSUNNY   63  25  23 SE9       29.93F
HALLOCK        PTSUNNY   64  23  20 SE8       29.89F
THF RVR FALLS  PTSUNNY   66  27  22 SE5       29.92S
6HR MIN TEMP:  61; 6HR MAX TEMP:  66;

BAUDETTE       PTSUNNY   61  22  22 SE8       29.96F
6HR MIN TEMP:  58; 6HR MAX TEMP:  66;

WASKISH        PTSUNNY   61  27  27 E9        29.96F
CROOKSTON      CLOUDY    66  30  26 S5        29.90F
STEPHEN NDAWN    N/A     66  23  19 SE8         N/A
GREENBUSH NDAW   N/A     64  25  22 SE10        N/A
$$
  *****  WEATHER ACROSS CENTRAL AND WEST MINNESOTA  *****

CITY           SKY/WX    TMP DP  RH WIND       PRES   REMARKS
FOSSTON        CLOUDY    64  27  24 SE6       29.92F
BEMIDJI        PTSUNNY   60  30  31 E7        29.94F
PARK RAPIDS    PTSUNNY   66  28  24 SE10      29.93F
6HR MIN TEMP:  61; 6HR MAX TEMP:  69;

ELBOW LAKE     FAIR      67  31  27 SE12G17   29.87F
6HR MIN TEMP:  66; 6HR MAX TEMP:  72;

WADENA         CLOUDY    64  34  32 E9        29.92S
DETROIT LAKES  CLOUDY    66  30  26 SE9       29.92F
MOORHEAD       CLOUDY    70  28  21 E9        29.88S
FERGUS FALLS   CLOUDY    68  23  18 SE10      29.88F
MORRIS MN      CLOUDY    68  32  26 E15       29.86F
STAPLES        CLOUDY    63  28  27 E6        29.93F
$$
  *****  WEATHER ELSEWHERE ACROSS MINNESOTA  *****

CITY           SKY/WX    TMP DP  RH WIND       PRES   REMARKS
DULUTH         CLEAR     44  28  53 E16G29    30.07F
6HR MIN TEMP:  44; 6HR MAX TEMP:  51;

INTRNTL FALLS  MOSUNNY   58  17  20 SE12      30.00F
6HR MIN TEMP:  57; 6HR MAX TEMP:  63;

ELY            CLEAR     52  16  24 E8        30.07S
CLOQUET        PTCLDY    43  28  56 E13G21    30.05F
WHEATON        CLOUDY    66  30  26 E15       29.87S
BRAINERD       PTSUNNY   62  33  33 E9        29.96F
6HR MIN TEMP:  58; 6HR MAX TEMP:  66;

HIBBING        CLEAR     54  27  35 SE12      30.03F
6HR MIN TEMP:  53; 6HR MAX TEMP:  61;

ALEXANDRIA     CLOUDY    66  28  24 E12       29.91F
6HR MIN TEMP:  65; 6HR MAX TEMP:  72;

SAINT CLOUD    CLOUDY    67  31  26 E7        29.91F
6HR MIN TEMP:  64; 6HR MAX TEMP:  71;

MINNEAPOLIS    CLOUDY    69  35  28 E15       29.90F
6HR MIN TEMP:  68; 6HR MAX TEMP:  73;

$$

  *****  WEATHER ACROSS SOUTH DAKOTA  *****

CITY           SKY/WX    TMP DP  RH WIND       PRES   REMARKS
SIOUX FALLS    CLOUDY    58  54  86 E10       29.83F
6HR MIN TEMP:  58; 6HR MAX TEMP:  62; 6HR PCP:  0.08;

BROOKINGS      CLOUDY    55  54  94 SE10      29.86F
WATERTOWN      LGT RAIN  57  51  80 S5        29.86S
6HR MIN TEMP:  57; 6HR MAX TEMP:  71; 6HR PCP:  0.01;

HURON          CLOUDY    55  54  96 E5        29.84F FOG
6HR MIN TEMP:  54; 6HR MAX TEMP:  68; 6HR PCP:  0.23;

SISSETON         N/A     70  27  20 SE9       29.84F
ABERDEEN       CLOUDY    64  41  42 SW7       29.86S
6HR MIN TEMP:  64; 6HR MAX TEMP:  75;

MITCHELL       CLOUDY    59  56  89 E7        29.84S
PIERRE         CLOUDY    51  49  92 N9        29.85F
6HR MIN TEMP:  50; 6HR MAX TEMP:  57; 6HR PCP:  0.10;

MOBRIDGE       CLOUDY    51  44  77 N16       29.86F
RAPID CITY     CLOUDY    46  44  93 N10       29.92R
6HR MIN TEMP:  45; 6HR MAX TEMP:  48; 6HR PCP:  0.06;

$$

  *****  SOME WEATHER IN NEARBY STATES *****

CITY           SKY/WX    TMP DP  RH WIND       PRES   REMARKS
GLASGOW MT     MOSUNNY   58  19  22 NW28G36   30.07S
6HR MIN TEMP:  55; 6HR MAX TEMP:  60;

GREAT FALLS MT CLOUDY    46  29  51 NW8       30.26F
6HR MIN TEMP:  33; 6HR MAX TEMP:  48; 6HR PCP:  0.08;

CHEYENNE WY    PTSUNNY   40  33  76 NW10      29.93R
6HR MIN TEMP:  38; 6HR MAX TEMP:  44;

SCOTTSBLUFF NE CLOUDY    59  32  36 VRB3      29.87R
6HR MIN TEMP:  52; 6HR MAX TEMP:  61;

OMAHA NE       CLOUDY    62  57  83 SE5       29.82R
6HR MIN TEMP:  61; 6HR MAX TEMP:  62; 6HR PCP:  0.25;

DES MOINES IA  LGT RAIN  63  60  90 CALM      29.87S
6HR MIN TEMP:  62; 6HR MAX TEMP:  76; 6HR PCP:  0.15;

DAVENPORT IA   MOCLDY    70  52  52 E12       29.90F
6HR MIN TEMP:  70; 6HR MAX TEMP:  80; 6HR PCP: TRACE;

CHICAGO IL     MOCLDY    52  33  48 NE12      30.01F
6HR MIN TEMP:  52; 6HR MAX TEMP:  58;

EAU CLAIRE WI  MOCLDY    64  27  24 E14       29.98F
6HR MIN TEMP:  64; 6HR MAX TEMP:  72;

LA CROSSE WI   MOCLDY    68  34  28 E9        29.95S
6HR MIN TEMP:  68; 6HR MAX TEMP:  76;

$$

  *****  SOME NATIONAL WEATHER *****

CITY           SKY/WX    TMP DP  RH WIND       PRES   REMARKS
LA GUARDIA NY  PTCLDY    66  44  45 CALM      29.89R
6HR MIN TEMP:  66; 6HR MAX TEMP:  79;

RALEIGH NC     CLOUDY    69  63  81 S5        29.95F
6HR MIN TEMP:  68; 6HR MAX TEMP:  80; 6HR PCP:  0.01;

ATLANTA GA     CLOUDY    70  65  84 CALM      29.95R
6HR MIN TEMP:  69; 6HR MAX TEMP:  73; 6HR PCP:  0.10;

NEW ORLEANS LA LGT RAIN  72  69  90 S12       29.87R
6HR MIN TEMP:  73; 6HR MAX TEMP:  79; 6HR PCP:  0.12;

OKLAHOMA CITY  TSTM      63  50  63 SE17G44   29.76R
6HR MIN TEMP:  71; 6HR MAX TEMP:  78;

ALBUQUERQUE NM MOSUNNY   62  24  23 N21G32    29.91R
6HR MIN TEMP:  52; 6HR MAX TEMP:  63;

SALT LAKE CITY MOSUNNY   66  30  26 NW8       29.97F
6HR MIN TEMP:  59; 6HR MAX TEMP:  67;

LOS ANGELES CA SUNNY     67  54  63 W13       29.94F



USA.gov is the U.S. government's official web portal to all federal, state and local government web resources and services.